Hourly Data Report for April 15, 2019

OTTAWA INTL A
ONTARIO
Current Station Operator: NAVCAN

45°19'00.000" N
75°40'00.000" W
114.90 m
6106001
71628
YOW

Download Data

Hourly Data (April 2019)
Hourly Data Report for April 15, 2019
TIME
LST
Temp Definition
°C
Dew Point Definition
°C
Rel Hum Definition
%
Precip. Amount Definition
mm

Wind Dir Definition
10's deg

Wind Spd Definition
km/h
Visibility Definition
km
Stn Press Definition
kPa
Hmdx Definition


Wind Chill Definition


Weather Definition


00:00 2.3 1.7 96   3 36 6.4 98.13     Thunderstorms,Moderate Rain, Fog
01:00 2.7 2.1 96   36 30 11.3 98.13     Moderate Rain
02:00 3.1 2.3 95   5 34 12.9 97.93     Rain
03:00 2.9 2.1 94   7 25 12.9 97.66     LegendNANA
04:00 3.4 2.1 91   33 6 12.9 97.87     Cloudy
05:00 3.1 2.2 94   30 8 24.1 97.87     LegendNANA
06:00 3.1 2.2 94   1 13 24.1 97.82     LegendNANA
07:00 3.2 2.4 94   36 14 16.1 97.81     Rain
08:00 2.8 2.3 97   27 8 12.9 97.89     Rain
09:00 2.7 2.2 96   29 14 12.9 97.94     Rain
10:00 3.7 3.0 95   32 16 12.9 97.95     Rain
11:00 3.2 2.2 93   29 20 16.1 98.01     Rain
12:00 3.0 1.9 92   29 26 24.1 98.11     Rain
13:00 3.4 1.9 90   31 29 16.1 98.23     Rain
14:00 3.5 0.6 81   32 38 24.1 98.34     Rain
15:00 3.4 0.7 83   31 42 24.1 98.45     LegendNANA
16:00 3.7 -0.1 76   31 34 24.1 98.62     Cloudy
17:00 2.6 -0.2 82   31 44 24.1 98.82     Rain
18:00 2.6 -1.2 76   30 34 24.1 99.01     LegendNANA
19:00 2.6 -2.2 71   30 39 24.1 99.17     Mostly Cloudy
20:00 2.6 -2.7 68   30 30 24.1 99.31     LegendNANA
21:00 2.3 -3.5 66   29 30 24.1 99.40     LegendNANA
22:00 1.5 -3.3 70   29 26 24.1 99.46     Mainly Clear
23:00 1.2 -3.8 69   29 26 24.1 99.50     LegendNANA

Notes on Data Quality.

Legend

  • E = Estimated
  • M = Missing
  • NA = Not Available*
  • [empty] = Indicates an unobserved value
Date modified: